Cloud_Cover
0 0 0 0 0 0 0 0 0 0 0 0 0 0 83 79 49 1 0 0 75 9 4 0 0 0 0 76 4 6 64 94 18 0 4 62 59 9 50 74 89 100 100 100
0 0 0 0 0 0 0 0 3 0 0 0 4 99 36 91 100 100 78 6 15 0 100 0 0 0 2 25 53 5 2 0 8 11 0 3 12 84 43 94 100 100 100 100
0 0 0 0 0 0 5 0 0 0 0 0 20 63 100 100 45 35 35 69 0 0 1 29 0 0 7 97 3 0 0 0 0 5 1 1 3 36 43 97 98 100 100 100
0 0 0 0 0 0 15 0 0 0 0 32 86 26 100 100 100 100 4 25 38 0 0 1 3 18 79 6 0 0 2 4 2 3 2 10 100 92 79 70 100 100 100 100
0 0 0 0 0 0 0 0 0 0 0 0 61 0 39 100 100 86 48 0 6 43 0 0 0 7 98 40 0 0 4 5 83 28 74 100 100 100 100 100 100 100 100 100
0 0 0 0 0 0 0 0 0 0 0 30 100 42 100 100 100 46 0 0 0 0 0 0 0 18 0 7 94 88 5 5 12 21 65 6 3 46 60 100 100 52 89 66
3 3 0 0 0 0 0 0 20 72 100 79 79 66 2 78 2 0 0 0 0 0 0 0 0 0 5 21 100 100 87 100 91 89 100 100 50 100 98 26 99 100 12 46
7 56 0 0 0 0 0 0 2 4 12 66 41 100 93 2 1 0 0 0 0 0 0 3 30 85 98 77 27 65 100 100 94 40 86 99 99 53 52 5 6 37 31 63
3 4 0 0 0 0 0 3 0 0 0 4 30 100 100 70 50 4 0 1 36 5 99 100 100 63 0 0 4 3 46 98 100 100 100 100 97 68 64 100 100 100 100 100
0 0 0 0 0 1 0 0 2 51 4 0 36 35 100 98 55 5 5 58 5 4 5 8 5 5 5 1 2 4 5 5 5 49 100 100 100 100 100 100 100 100 100 98
0 0 2 16 49 6 14 0 4 0 0 5 5 92 5 2 11 19 29 4 8 7 3 7 7 5 5 5 5 5 5 5 5 5 5 5 69 100 100 100 100 100 100 100
0 0 0 0 1 0 0 1 0 0 0 0 0 0 0 5 5 94 99 10 0 5 5 10 52 48 5 5 5 5 5 4 5 5 5 5 89 99 100 100 100 100 100 100
0 0 0 0 28 24 25 83 2 0 0 2 5 57 100 41 21 64 10 33 7 5 22 10 5 5 5 5 3 5 45 58 49 71 64 8 6 50 75 100 100 100 100 100
0 0 0 0 0 1 0 0 0 3 5 38 32 43 53 59 92 43 8 84 93 74 80 96 5 13 5 6 5 5 31 41 56 30 26 27 5 8 57 8 80 100 100 100
0 0 0 0 0 0 0 0 6 58 13 69 5 46 6 9 28 5 19 71 43 73 100 98 28 5 5 7 5 49 21 95 85 95 68 5 5 5 51 93 70 100 100 100
0 0 0 0 0 1 5 2 5 5 5 5 39 100 28 85 91 6 18 24 46 70 56 53 46 76 5 5 30 24 100 100 100 70 5 5 5 9 11 5 100 100 100 100
0 0 0 0 3 5 20 5 5 5 5 26 30 57 57 22 5 5 66 16 19 5 5 23 12 29 5 5 21 20 44 5 3 0 5 18 98 99 100 39 98 78 57 98
0 0 0 2 5 42 44 3 5 0 3 57 5 29 30 32 91 66 68 5 75 15 6 9 3 5 5 13 10 1 0 6 69 31 9 4 16 95 100 99 42 100 100 100
0 0 0 5 5 5 98 6 31 5 5 29 5 11 14 5 5 15 99 96 74 8 0 0 4 1 5 44 5 1 42 62 1 89 15 15 18 72 72 55 53 89 100 100
0 0 5 50 63 99 19 40 5 5 5 5 11 5 12 26 5 5 5 4 0 3 5 8 5 25 5 4 11 48 92 0 0 8 5 44 97 100 100 100 100 73 100 100
4 5 16 98 54 98 5 96 5 5 6 5 5 5 5 5 5 5 5 14 5 5 24 5 5 5 5 4 1 2 2 14 12 14 75 100 100 100 99 87 100 100 100 100
2 5 8 30 64 89 58 68 5 49 26 5 5 5 5 5 5 13 8 5 6 42 8 60 42 5 5 40 5 3 83 72 84 100 100 100 100 100 100 100 100 100 100 100
5 38 100 98 62 35 98 80 5 5 5 5 5 5 5 5 5 5 5 5 5 5 5 18 8 35 100 5 5 100 90 100 100 100 100 100 100 100 100 100 100 100 100 100
46 7 6 83 57 10 5 5 5 5 5 5 6 18 5 5 5 5 5 69 79 37 40 34 94 72 5 62 55 17 100 100 100 100 100 100 100 100 100 100 100 100 100 100
17 52 70 78 5 6 5 5 30 5 12 19 5 5 8 5 5 63 98 6 5 7 5 34 47 13 4 100 27 100 100 100 100 100 100 100 100 100 100 100 100 100 100 86
8 64 30 36 23 5 28 6 5 5 5 5 7 5 6 32 69 54 72 12 60 100 29 10 85 8 64 41 95 100 100 100 100 100 100 100 100 100 100 100 71 91 99 77